This demonstration page uses our WeatherBlox Daily Observations layout. Learn more.

Left ArrowRight Arrow

34.02893, -84.19858

Hourly Observations for November 3, 2022

Temp ( °F °C ) Dew Point ( °F °C ) Humidity (%) Winds ( mph kmh ) Pressure ( in mb ) Visibility ( mi km ) Precip ( " mm )
12:53 am 00:53 Clear 57 13.9 51 10.6 80 80 Calm 30.26 1025 10 16 0.00 0.00
1:53 am 01:53 Clear 52 11.1 50 10 93 93 Calm 30.26 1025 10 16 0.00 0.00
2:53 am 02:53 Clear 55 12.8 52 11.1 89 89 VRB 3 6 30.25 1025 10 16 0.00 0.00
3:53 am 03:53 Clear 55 12.8 51 10.6 86 86 Calm 30.25 1024 10 16 0.00 0.00
4:53 am 04:53 Clear 55 12.8 51 10.6 86 86 Calm 30.25 1024 10 16 0.00 0.00
5:53 am 05:53 Clear 54 12.2 51 10.6 90 90 Calm 30.26 1025 10 16 0.00 0.00
6:53 am 06:53 Clear 54 12.2 51 10.6 90 90 Calm 30.27 1025 10 16 0.00 0.00
7:53 am 07:53 Clear 54 12.2 51 10.6 90 90 Calm 30.28 1026 10 16 0.00 0.00
8:53 am 08:53 Cloudy 58 14.4 52 11.1 81 81 Calm 30.30 1026 10 16 0.00 0.00
9:53 am 09:53 Mostly Cloudy 60 15.6 52 11.1 75 75 VRB 5 7 30.32 1027 10 16 0.00 0.00
10:53 am 10:53 Sunny 64 17.8 54 12.2 70 70 VRB 5 7 30.31 1027 10 16 0.00 0.00
11:53 am 11:53 Sunny 67 19.4 55 12.8 66 66 undefined N/A 30.29 1026 10 16 0.00 0.00
12:53 pm 12:53 Sunny 70 21.1 55 12.8 59 59 SE 3 6 30.28 1025 10 16 0.00 0.00
1:53 pm 13:53 Mostly Cloudy 70 21.1 55 12.8 59 59 undefined N/A 30.26 1025 10 16 0.00 0.00
2:53 pm 14:53 Mostly Cloudy 71 21.7 54 12.2 55 55 Calm 30.23 1024 10 16 0.00 0.00
3:53 pm 15:53 Mostly Cloudy 72 22.2 53 11.7 51 51 VRB 5 7 30.21 1023 10 16 0.00 0.00
4:53 pm 16:53 Sunny 70 21.1 53 11.7 55 55 Calm 30.20 1023 10 16 0.00 0.00
5:53 pm 17:53 Sunny 67 19.4 55 12.8 66 66 Calm 30.21 1023 10 16 0.00 0.00
6:53 pm 18:53 Clear 62 16.7 55 12.8 78 78 Calm 30.22 1023 10 16 0.00 0.00
7:53 pm 19:53 Clear 60 15.6 53 11.7 78 78 Calm 30.24 1024 10 16 0.00 0.00
8:53 pm 20:53 Clear 57 13.9 53 11.7 87 87 Calm 30.24 1024 10 16 0.00 0.00
9:53 pm 21:53 Clear 56 13.3 53 11.7 90 90 Calm 30.25 1024 9 14 0.00 0.00
10:53 pm 22:53 Clear 54 12.2 52 11.1 93 93 Calm 30.25 1024 8 13 0.00 0.00
11:53 pm 23:53 Clear 54 12.2 52 11.1 93 93 Calm 30.25 1024 9 14 0.00 0.00

Powered by AerisWeather